OneWeb SL0369

operational
NORAD ID: 49295 Int'l Des: 2021-090 Owner: ONEWEBN Country: UK Constellation: oneweb
LEOCIRCULARPOLARONEWEB_TYPE

About OneWeb SL0369

Description loading...

Live Position

Loading 3D Globe...

Upcoming Passes

Altitude History

Altitude vs Time

uPlot chart will show altitude changes over time

Two-Line Element Set

1 49295U 21090S 26035.35094074 -.00000004 00000-0 -43181-4 0 9996
2 49295 87.9252 331.4183 0001674 79.3228 280.8094 13.19727285208899
Epoch: Feb 4, 2026 • Age: 11 hours

Current Status

Altitude 1211.7 km
Velocity 7.25 km/s
Sub-Earth Point -65.27°S, 93.26°W
Launch Date Oct 14, 2021
Age 4.3 years
Type internet

Technical Details

Classification Payload
Mass 148.00 kg
Dry Mass 140.00 kg
Total Mass 148.00 kg
Length 1.30 m
Diameter 1.00 m
Span 5.00 m
Shape Trapezoid+2 pan
Manufacturer ONEWUS
Bus Type ARROW
Phase Status In Orbit
Owner/State ONEWEBN/UK

Large Constellations

Loading constellations...